カタログに戻る

ONEWEB-0172

運用中通信PO
NORAD 48071·PAYLOAD·🇬🇧 United Kingdom

打ち上げ Mar 25, 2021 から Vostochny Cosmodrome

Loading…

次のパス (今後24時間)

TLE

最新Source: CelesTrak SupGP

元期: Sep 14, 2026, 07:14 UTC

1 48071C 21025AF  26257.30155507 -.00002315  00000+0 -63477-2 0  2576
2 48071  87.8921 302.4972 0001794  92.5777  18.3111 13.13471705    10

AllMySatでONEWEB-0172をリアルタイム追跡

Download on the App Store